Voltar ao catálogo

FENGYUN 1C DEB

AtivoSSO
NORAD 32117·DEBRIS·🇨🇳 China

Lançado May 10, 1999 de Taiyuan Satellite Launch Center

Loading…

Próximas Passagens (próximas 24 horas)

TLE

AtualizadoSource: Space-Track

Época: Sep 14, 2026, 08:46 UTC

1 32117U 99025CRK 26257.36528352  .00001204  00000-0  53078-3 0  9998
2 32117  98.5899 301.9609 0026719  11.4707 348.7076 14.25013422987213

Acompanhe FENGYUN 1C DEB em tempo real com AllMySat

Download on the App Store